Terminal Aerodrome Forecast
Issued by NWS St Louis, MO

Home | Current Version | Previous Version | Text Only | Print | Product List | Glossary On
Versions: 1 2 3 4 5 6 7 8 9 10 11 12 13 14 15
840
FTUS43 KLSX 200520
TAFCOU
TAF
KCOU 200520Z 2006/2106 25005KT P6SM SKC
     FM201800 25009KT P6SM FEW070
     FM210000 25005KT P6SM FEW250=

USA.gov is the U.S. government's official web portal to all federal, state and local government web resources and services.